| time (UTC) | temp F | wind direction | speed MPH | gust MPH | rain 1hr in | rain 24hr in | rain mn in | humidity % | barometer mb |
| 20260504180214 | 61 | 360 | 0.0 | 0.0 | 0.00 | 0.00 | 0.03 | 56 | |
| 20260504173209 | 62 | 360 | 0.0 | 0.0 | 0.00 | 0.00 | 0.03 | 56 | |
| 20260504170210 | 63 | 83 | 0.0 | 0.0 | 0.00 | 0.00 | 0.03 | 52 | |
| 20260504160210 | 64 | 360 | 0.0 | 0.0 | 0.00 | 0.00 | 0.03 | 49 | |
| 20260504150210 | 64 | 360 | 0.0 | 0.0 | 0.00 | 0.00 | 0.03 | 50 | |
| 20260504140209 | 67 | 90 | 0.0 | 0.0 | 0.00 | 0.00 | 0.03 | 40 | |
| 20260504130215 | 68 | 27 | 0.0 | 0.0 | 0.00 | 0.00 | 0.03 | 41 | |
| 20260504120210 | 67 | 216 | 0.0 | 0.0 | 0.00 | 0.00 | 0.03 | 45 | |
| 20260504110210 | 66 | 326 | 0.0 | 0.0 | 0.00 | 0.00 | 0.03 | 38 | |
| 20260504100212 | 66 | 340 | 0.0 | 0.0 | 0.00 | 0.00 | 0.03 | 40 | |
| 20260504080210 | 64 | 86 | 0.0 | 0.0 | 0.00 | 0.00 | 0.03 | 43 | |
| 20260504070212 | 60 | 89 | 0.0 | 0.0 | 0.00 | 0.00 | 0.03 | 53 | |
| 20260504060212 | 56 | 94 | 0.0 | 0.0 | 0.00 | 0.00 | 0.03 | 64 | |
| 20260504050210 | 51 | 360 | 0.0 | 0.0 | 0.00 | 0.00 | 0.03 | 72 | |
| 20260504043211 | 48 | 360 | 0.0 | 0.0 | 0.00 | 0.00 | 0.03 | 76 | |
| 20260504040211 | 47 | 360 | 0.0 | 0.0 | 0.00 | 0.00 | 0.03 | 77 | |
| 20260504033211 | 47 | 360 | 0.0 | 0.0 | 0.00 | 0.00 | 0.03 | 77 | |
| 20260504030212 | 48 | 360 | 0.0 | 0.0 | 0.00 | 0.00 | 0.03 | 75 | |
| 20260504023211 | 49 | 360 | 0.0 | 0.0 | 0.00 | 0.00 | 0.03 | 72 | |
| 20260504020212 | 51 | 360 | 0.0 | 0.0 | 0.00 | 0.00 | 0.03 | 71 | |
| 20260504013211 | 51 | 360 | 0.0 | 0.0 | 0.00 | 0.00 | 0.03 | 71 | |
| 20260504010211 | 51 | 360 | 0.0 | 0.0 | 0.00 | 0.00 | 0.03 | 70 | |
| 20260504003210 | 52 | 360 | 0.0 | 0.0 | 0.00 | 0.00 | 0.03 | 68 | |
| 20260504000208 | 53 | 360 | 0.0 | 0.0 | 0.00 | 0.00 | 0.03 | 67 | |
| 20260503233209 | 54 | 360 | 0.0 | 0.0 | 0.00 | 0.00 | 0.03 | 64 | |
| 20260503230209 | 54 | 360 | 0.0 | 0.0 | 0.00 | 0.00 | 0.03 | 64 | |
| 20260503223210 | 54 | 360 | 0.0 | 0.0 | 0.00 | 0.00 | 0.03 | 60 | |
| 20260503220212 | 54 | 360 | 0.0 | 0.0 | 0.00 | 0.00 | 0.00 | 60 | |
| 20260503213210 | 55 | 360 | 0.0 | 0.0 | 0.00 | 0.00 | 0.03 | 60 | |
| 20260503210211 | 56 | 360 | 0.0 | 0.0 | 0.00 | 0.00 | 0.03 | 57 | |
| 20260503203209 | 56 | 360 | 0.0 | 0.0 | 0.00 | 0.00 | 0.03 | 55 | |
| 20260503200211 | 57 | 360 | 1.0 | 0.0 | 0.00 | 0.00 | 0.03 | 55 | |
| 20260503193210 | 57 | 360 | 0.0 | 0.0 | 0.00 | 0.00 | 0.03 | 54 | |
| 20260503190210 | 57 | 360 | 1.0 | 0.0 | 0.00 | 0.00 | 0.03 | 54 | |
| 20260503183209 | 59 | 360 | 5.0 | 0.0 | 0.00 | 0.00 | 0.03 | 49 |